{"data":{"norad_id":64340,"epoch":"2026-09-21T08:21:33.787008Z","epoch_age_seconds":115111,"freshness":"FRESH","line1":"1 64340U 25125A   26264.34830772  .00002858  00000+0  22654-3 0  9990","line2":"2 64340  42.0088  21.2630 0009634  22.7276 337.3975 15.02307153 70082","mean_motion":15.02307153,"eccentricity":0.0009634,"inclination_deg":42.0088,"raan_deg":21.263,"arg_perigee_deg":22.7276,"mean_anomaly_deg":337.3975,"bstar":0.00022654,"rev_number":7008,"period_min":95.852568971959,"perigee_km":553.100021559,"apogee_km":566.46800777005,"semimajor_km":6937.9210146645,"source":"CELESTRAK","updated_at":"2026-09-22T09:00:29.712841Z"}}